Location: Gwatt
(46.7204°N, 7.6223°E)
Time: 12:10:40
(UTC+00:00)

Transit 2A - Pass Details

Date: 10 May 2021
Orbit: 601 x 958 km, 66.7° (Epoch: 15 June)

Event Time Altitude Azimuth Distance (km) Brightness Sun altitude
Exits shadow 01:39:55 35° 177° (S) 1,007 6.2 -18.9°
Maximum altitude 01:41:29 55° 119° (ESE) 748 5.9 -18.8°
Drops below altitude 10° 01:45:45 10° 42° (NE) 1,958 9.4 -18.3°
Sets 01:48:00 0° 38° (NE) 2,859 10.7 -18.1°
